owner,sensor,date,latitude,longitude,air_temperature,qcFlag 
DISL,ioos:station:DISL:PPTA:1,2014-08-01T00:00:00Z,30.2791,-87.5561,27.94,1111122 
DISL,ioos:station:DISL:PPTA:1,2014-08-01T00:30:00Z,30.2791,-87.5561,27.53,1111122 
DISL,ioos:station:DISL:PPTA:1,2014-08-01T01:00:00Z,30.2791,-87.5561,27.42,1111122 
DISL,ioos:station:DISL:PPTA:1,2014-08-01T01:30:00Z,30.2791,-87.5561,27.14,1111122 
DISL,ioos:station:DISL:PPTA:1,2014-08-01T02:00:00Z,30.2791,-87.5561,26.85,1111122 
DISL,ioos:station:DISL:PPTA:1,2014-08-01T02:30:00Z,30.2791,-87.5561,26.96,1111122 
DISL,ioos:station:DISL:PPTA:1,2014-08-01T03:00:00Z,30.2791,-87.5561,26.38,1111122 
DISL,ioos:station:DISL:PPTA:1,2014-08-01T03:30:00Z,30.2791,-87.5561,26.14,1111122 
DISL,ioos:station:DISL:PPTA:1,2014-08-01T04:00:00Z,30.2791,-87.5561,25.87,1111122 
DISL,ioos:station:DISL:PPTA:1,2014-08-01T04:30:00Z,30.2791,-87.5561,25.7,1111122 
DISL,ioos:station:DISL:PPTA:1,2014-08-01T05:00:00Z,30.2791,-87.5561,25.77,1111122 
DISL,ioos:station:DISL:PPTA:1,2014-08-01T05:30:00Z,30.2791,-87.5561,25.7,1111122 
DISL,ioos:station:DISL:PPTA:1,2014-08-01T06:00:00Z,30.2791,-87.5561,25.3,1111122 
DISL,ioos:station:DISL:PPTA:1,2014-08-01T06:30:00Z,30.2791,-87.5561,24.77,1111122 
DISL,ioos:station:DISL:PPTA:1,2014-08-01T07:00:00Z,30.2791,-87.5561,24.32,1111122 
DISL,ioos:station:DISL:PPTA:1,2014-08-01T07:30:00Z,30.2791,-87.5561,23.81,1111122 
DISL,ioos:station:DISL:PPTA:1,2014-08-01T08:00:00Z,30.2791,-87.5561,23.78,1111122 
DISL,ioos:station:DISL:PPTA:1,2014-08-01T08:30:00Z,30.2791,-87.5561,23.17,1111122 
DISL,ioos:station:DISL:PPTA:1,2014-08-01T09:00:00Z,30.2791,-87.5561,22.83,1111122 
DISL,ioos:station:DISL:PPTA:1,2014-08-01T09:30:00Z,30.2791,-87.5561,22.83,1111122 
DISL,ioos:station:DISL:PPTA:1,2014-08-01T10:00:00Z,30.2791,-87.5561,22.7,1111122 
DISL,ioos:station:DISL:PPTA:1,2014-08-01T10:30:00Z,30.2791,-87.5561,22.7,1111122 
DISL,ioos:station:DISL:PPTA:1,2014-08-01T11:00:00Z,30.2791,-87.5561,22.74,1111122 
DISL,ioos:station:DISL:PPTA:1,2014-08-01T11:30:00Z,30.2791,-87.5561,22.74,1111122 
DISL,ioos:station:DISL:PPTA:1,2014-08-01T12:00:00Z,30.2791,-87.5561,22.67,1111122 
DISL,ioos:station:DISL:PPTA:1,2014-08-01T12:30:00Z,30.2791,-87.5561,22.9,1111122 
DISL,ioos:station:DISL:PPTA:1,2014-08-01T13:00:00Z,30.2791,-87.5561,23.04,1111122 
DISL,ioos:station:DISL:PPTA:1,2014-08-01T13:30:00Z,30.2791,-87.5561,23.27,1111122 
DISL,ioos:station:DISL:PPTA:1,2014-08-01T14:00:00Z,30.2791,-87.5561,23.98,1111122 
DISL,ioos:station:DISL:PPTA:1,2014-08-01T14:30:00Z,30.2791,-87.5561,24.63,1111122 
DISL,ioos:station:DISL:PPTA:1,2014-08-01T15:00:00Z,30.2791,-87.5561,25.09,1111122 
DISL,ioos:station:DISL:PPTA:1,2014-08-01T15:30:00Z,30.2791,-87.5561,25.91,1111122 
DISL,ioos:station:DISL:PPTA:1,2014-08-01T16:00:00Z,30.2791,-87.5561,27.3,1111122 
DISL,ioos:station:DISL:PPTA:1,2014-08-01T16:30:00Z,30.2791,-87.5561,27.04,1111122 
DISL,ioos:station:DISL:PPTA:1,2014-08-01T17:00:00Z,30.2791,-87.5561,27.55,1111122 
DISL,ioos:station:DISL:PPTA:1,2014-08-01T17:30:00Z,30.2791,-87.5561,27.6,1111122 
DISL,ioos:station:DISL:PPTA:1,2014-08-01T18:00:00Z,30.2791,-87.5561,28.01,1111122 
DISL,ioos:station:DISL:PPTA:1,2014-08-01T18:30:00Z,30.2791,-87.5561,27.84,1111122 
DISL,ioos:station:DISL:PPTA:1,2014-08-01T19:00:00Z,30.2791,-87.5561,28.11,1111122 
DISL,ioos:station:DISL:PPTA:1,2014-08-01T19:30:00Z,30.2791,-87.5561,28.11,1111122 
DISL,ioos:station:DISL:PPTA:1,2014-08-01T20:00:00Z,30.2791,-87.5561,28.51,1111122 
DISL,ioos:station:DISL:PPTA:1,2014-08-01T20:30:00Z,30.2791,-87.5561,27.93,1111122 
DISL,ioos:station:DISL:PPTA:1,2014-08-01T21:00:00Z,30.2791,-87.5561,28.24,1111122 
DISL,ioos:station:DISL:PPTA:1,2014-08-01T21:30:00Z,30.2791,-87.5561,28.21,1111122 
DISL,ioos:station:DISL:PPTA:1,2014-08-01T22:00:00Z,30.2791,-87.5561,27.8,1111122 
DISL,ioos:station:DISL:PPTA:1,2014-08-01T22:30:00Z,30.2791,-87.5561,28.11,1111122 
DISL,ioos:station:DISL:PPTA:1,2014-08-01T23:00:00Z,30.2791,-87.5561,27.87,1111122 
DISL,ioos:station:DISL:PPTA:1,2014-08-01T23:30:00Z,30.2791,-87.5561,28.01,1111122 
DISL,ioos:station:DISL:PPTA:1,2014-08-02T00:00:00Z,30.2791,-87.5561,27.77,1111122 
DISL,ioos:station:DISL:PPTA:1,2014-08-02T00:30:00Z,30.2791,-87.5561,27.72,1111122 
DISL,ioos:station:DISL:PPTA:1,2014-08-02T01:00:00Z,30.2791,-87.5561,27.25,1111122 
DISL,ioos:station:DISL:PPTA:1,2014-08-02T01:30:00Z,30.2791,-87.5561,27.04,1111122 
DISL,ioos:station:DISL:PPTA:1,2014-08-02T02:00:00Z,30.2791,-87.5561,26.98,1111122 
DISL,ioos:station:DISL:PPTA:1,2014-08-02T02:30:00Z,30.2791,-87.5561,26.92,1111122 
DISL,ioos:station:DISL:PPTA:1,2014-08-02T03:00:00Z,30.2791,-87.5561,26.55,1111122 
DISL,ioos:station:DISL:PPTA:1,2014-08-02T03:30:00Z,30.2791,-87.5561,26.04,1111122 
DISL,ioos:station:DISL:PPTA:1,2014-08-02T04:00:00Z,30.2791,-87.5561,25.97,1111122 
DISL,ioos:station:DISL:PPTA:1,2014-08-02T04:30:00Z,30.2791,-87.5561,25.7,1111122 
DISL,ioos:station:DISL:PPTA:1,2014-08-02T05:00:00Z,30.2791,-87.5561,25.56,1111122 
DISL,ioos:station:DISL:PPTA:1,2014-08-02T05:30:00Z,30.2791,-87.5561,25.53,1111122 
DISL,ioos:station:DISL:PPTA:1,2014-08-02T06:00:00Z,30.2791,-87.5561,25.51,1111122 
DISL,ioos:station:DISL:PPTA:1,2014-08-02T06:30:00Z,30.2791,-87.5561,25.21,1111122 
DISL,ioos:station:DISL:PPTA:1,2014-08-02T07:00:00Z,30.2791,-87.5561,24.97,1111122 
DISL,ioos:station:DISL:PPTA:1,2014-08-02T07:30:00Z,30.2791,-87.5561,25.01,1111122 
DISL,ioos:station:DISL:PPTA:1,2014-08-02T08:00:00Z,30.2791,-87.5561,24.87,1111122 
DISL,ioos:station:DISL:PPTA:1,2014-08-02T08:30:00Z,30.2791,-87.5561,25.11,1111122 
DISL,ioos:station:DISL:PPTA:1,2014-08-02T09:00:00Z,30.2791,-87.5561,25.11,1111122 
DISL,ioos:station:DISL:PPTA:1,2014-08-02T09:30:00Z,30.2791,-87.5561,24.73,1111122 
DISL,ioos:station:DISL:PPTA:1,2014-08-02T10:00:00Z,30.2791,-87.5561,24.87,1111122 
DISL,ioos:station:DISL:PPTA:1,2014-08-02T10:30:00Z,30.2791,-87.5561,24.46,1111122 
DISL,ioos:station:DISL:PPTA:1,2014-08-02T11:00:00Z,30.2791,-87.5561,24.43,1111122 
DISL,ioos:station:DISL:PPTA:1,2014-08-02T11:30:00Z,30.2791,-87.5561,24.46,1111122 
DISL,ioos:station:DISL:PPTA:1,2014-08-02T12:00:00Z,30.2791,-87.5561,24.36,1111122 
DISL,ioos:station:DISL:PPTA:1,2014-08-02T12:30:00Z,30.2791,-87.5561,24.32,1111122 
DISL,ioos:station:DISL:PPTA:1,2014-08-02T13:00:00Z,30.2791,-87.5561,24.5,1111122 
DISL,ioos:station:DISL:PPTA:1,2014-08-02T13:30:00Z,30.2791,-87.5561,24.94,1111122 
DISL,ioos:station:DISL:PPTA:1,2014-08-02T14:00:00Z,30.2791,-87.5561,25.63,1111122 
DISL,ioos:station:DISL:PPTA:1,2014-08-02T14:30:00Z,30.2791,-87.5561,26.71,1111122 
DISL,ioos:station:DISL:PPTA:1,2014-08-02T15:00:00Z,30.2791,-87.5561,27.27,1111122 
DISL,ioos:station:DISL:PPTA:1,2014-08-02T15:30:00Z,30.2791,-87.5561,28.11,1111122 
DISL,ioos:station:DISL:PPTA:1,2014-08-02T16:00:00Z,30.2791,-87.5561,27.85,1111122 
DISL,ioos:station:DISL:PPTA:1,2014-08-02T16:30:00Z,30.2791,-87.5561,28.02,1111122 
DISL,ioos:station:DISL:PPTA:1,2014-08-02T17:00:00Z,30.2791,-87.5561,28.6,1111122 
DISL,ioos:station:DISL:PPTA:1,2014-08-02T17:30:00Z,30.2791,-87.5561,28.08,1111122 
DISL,ioos:station:DISL:PPTA:1,2014-08-02T18:00:00Z,30.2791,-87.5561,28.63,1111122 
DISL,ioos:station:DISL:PPTA:1,2014-08-02T18:30:00Z,30.2791,-87.5561,29.04,1111122 
DISL,ioos:station:DISL:PPTA:1,2014-08-02T19:00:00Z,30.2791,-87.5561,29.04,1111122 
DISL,ioos:station:DISL:PPTA:1,2014-08-02T19:30:00Z,30.2791,-87.5561,29.89,1111122 
DISL,ioos:station:DISL:PPTA:1,2014-08-02T20:00:00Z,30.2791,-87.5561,29.48,1111122 
DISL,ioos:station:DISL:PPTA:1,2014-08-02T20:30:00Z,30.2791,-87.5561,30.4,1111122 
DISL,ioos:station:DISL:PPTA:1,2014-08-02T21:00:00Z,30.2791,-87.5561,30.71,1111122 
DISL,ioos:station:DISL:PPTA:1,2014-08-02T21:30:00Z,30.2791,-87.5561,30.78,1111122 
DISL,ioos:station:DISL:PPTA:1,2014-08-02T22:00:00Z,30.2791,-87.5561,30.16,1111122 
DISL,ioos:station:DISL:PPTA:1,2014-08-02T22:30:00Z,30.2791,-87.5561,30.16,1111122 
DISL,ioos:station:DISL:PPTA:1,2014-08-02T23:00:00Z,30.2791,-87.5561,29.93,1111122 
DISL,ioos:station:DISL:PPTA:1,2014-08-02T23:30:00Z,30.2791,-87.5561,29.52,1111122 
DISL,ioos:station:DISL:PPTA:1,2014-08-03T00:00:00Z,30.2791,-87.5561,29.18,1111122 
DISL,ioos:station:DISL:PPTA:1,2014-08-03T00:30:00Z,30.2791,-87.5561,28.96,1111122 
DISL,ioos:station:DISL:PPTA:1,2014-08-03T01:00:00Z,30.2791,-87.5561,28.55,1111122 
DISL,ioos:station:DISL:PPTA:1,2014-08-03T01:30:00Z,30.2791,-87.5561,28.39,1111122 
DISL,ioos:station:DISL:PPTA:1,2014-08-03T02:00:00Z,30.2791,-87.5561,28.17,1111122 
DISL,ioos:station:DISL:PPTA:1,2014-08-03T02:30:00Z,30.2791,-87.5561,27.93,1111122 
DISL,ioos:station:DISL:PPTA:1,2014-08-03T03:00:00Z,30.2791,-87.5561,27.66,1111122 
DISL,ioos:station:DISL:PPTA:1,2014-08-03T03:30:00Z,30.2791,-87.5561,27.48,1111122 
DISL,ioos:station:DISL:PPTA:1,2014-08-03T04:00:00Z,30.2791,-87.5561,27.28,1111122 
DISL,ioos:station:DISL:PPTA:1,2014-08-03T04:30:00Z,30.2791,-87.5561,27.29,1111122 
DISL,ioos:station:DISL:PPTA:1,2014-08-03T05:00:00Z,30.2791,-87.5561,27.12,1111122 
DISL,ioos:station:DISL:PPTA:1,2014-08-03T05:30:00Z,30.2791,-87.5561,26.93,1111122 
DISL,ioos:station:DISL:PPTA:1,2014-08-03T06:00:00Z,30.2791,-87.5561,26.59,1111122 
DISL,ioos:station:DISL:PPTA:1,2014-08-03T06:30:00Z,30.2791,-87.5561,26.52,1111122 
DISL,ioos:station:DISL:PPTA:1,2014-08-03T07:00:00Z,30.2791,-87.5561,26.18,1111122 
DISL,ioos:station:DISL:PPTA:1,2014-08-03T07:30:00Z,30.2791,-87.5561,25.94,1111122 
DISL,ioos:station:DISL:PPTA:1,2014-08-03T08:00:00Z,30.2791,-87.5561,25.67,1111122 
DISL,ioos:station:DISL:PPTA:1,2014-08-03T08:30:00Z,30.2791,-87.5561,26.11,1111122 
DISL,ioos:station:DISL:PPTA:1,2014-08-03T09:00:00Z,30.2791,-87.5561,26.66,1111122 
DISL,ioos:station:DISL:PPTA:1,2014-08-03T09:30:00Z,30.2791,-87.5561,25.77,1111122 
DISL,ioos:station:DISL:PPTA:1,2014-08-03T10:00:00Z,30.2791,-87.5561,26.66,1111122 
DISL,ioos:station:DISL:PPTA:1,2014-08-03T10:30:00Z,30.2791,-87.5561,26.42,1111122 
DISL,ioos:station:DISL:PPTA:1,2014-08-03T11:00:00Z,30.2791,-87.5561,26.35,1111122 
DISL,ioos:station:DISL:PPTA:1,2014-08-03T11:30:00Z,30.2791,-87.5561,26.14,1111122 
DISL,ioos:station:DISL:PPTA:1,2014-08-03T12:00:00Z,30.2791,-87.5561,26.01,1111122 
DISL,ioos:station:DISL:PPTA:1,2014-08-03T12:30:00Z,30.2791,-87.5561,25.91,1111122 
DISL,ioos:station:DISL:PPTA:1,2014-08-03T13:00:00Z,30.2791,-87.5561,26.08,1111122 
DISL,ioos:station:DISL:PPTA:1,2014-08-03T13:30:00Z,30.2791,-87.5561,26.01,1111122 
DISL,ioos:station:DISL:PPTA:1,2014-08-03T14:00:00Z,30.2791,-87.5561,26.08,1111122 
DISL,ioos:station:DISL:PPTA:1,2014-08-03T14:30:00Z,30.2791,-87.5561,26.04,1111122 
DISL,ioos:station:DISL:PPTA:1,2014-08-03T15:00:00Z,30.2791,-87.5561,26.38,1111122 
DISL,ioos:station:DISL:PPTA:1,2014-08-03T15:30:00Z,30.2791,-87.5561,26.68,1111122 
DISL,ioos:station:DISL:PPTA:1,2014-08-03T16:00:00Z,30.2791,-87.5561,27.25,1111122 
DISL,ioos:station:DISL:PPTA:1,2014-08-03T16:30:00Z,30.2791,-87.5561,27.48,1111122 
DISL,ioos:station:DISL:PPTA:1,2014-08-03T17:00:00Z,30.2791,-87.5561,28.0,1111122 
DISL,ioos:station:DISL:PPTA:1,2014-08-03T17:30:00Z,30.2791,-87.5561,28.79,1111122 
DISL,ioos:station:DISL:PPTA:1,2014-08-03T18:00:00Z,30.2791,-87.5561,29.23,1111122 
DISL,ioos:station:DISL:PPTA:1,2014-08-03T18:30:00Z,30.2791,-87.5561,30.2,1111122 
DISL,ioos:station:DISL:PPTA:1,2014-08-03T19:00:00Z,30.2791,-87.5561,28.49,1111122 
DISL,ioos:station:DISL:PPTA:1,2014-08-03T19:30:00Z,30.2791,-87.5561,28.24,1111122 
DISL,ioos:station:DISL:PPTA:1,2014-08-03T20:00:00Z,30.2791,-87.5561,28.89,1111122 
DISL,ioos:station:DISL:PPTA:1,2014-08-03T20:30:00Z,30.2791,-87.5561,29.44,1111122 
DISL,ioos:station:DISL:PPTA:1,2014-08-03T21:00:00Z,30.2791,-87.5561,29.78,1111122 
DISL,ioos:station:DISL:PPTA:1,2014-08-03T21:30:00Z,30.2791,-87.5561,29.1,1111122 
DISL,ioos:station:DISL:PPTA:1,2014-08-03T22:00:00Z,30.2791,-87.5561,28.65,1111122 
DISL,ioos:station:DISL:PPTA:1,2014-08-03T22:30:00Z,30.2791,-87.5561,28.55,1111122 
DISL,ioos:station:DISL:PPTA:1,2014-08-03T23:00:00Z,30.2791,-87.5561,28.72,1111122 
DISL,ioos:station:DISL:PPTA:1,2014-08-03T23:30:00Z,30.2791,-87.5561,28.38,1111122 
DISL,ioos:station:DISL:PPTA:1,2014-08-04T00:00:00Z,30.2791,-87.5561,28.45,1111122 
DISL,ioos:station:DISL:PPTA:1,2014-08-04T00:30:00Z,30.2791,-87.5561,28.13,1111122 
DISL,ioos:station:DISL:PPTA:1,2014-08-04T01:00:00Z,30.2791,-87.5561,28.23,1111122 
DISL,ioos:station:DISL:PPTA:1,2014-08-04T01:30:00Z,30.2791,-87.5561,27.89,1111122 
DISL,ioos:station:DISL:PPTA:1,2014-08-04T02:00:00Z,30.2791,-87.5561,27.52,1111122 
DISL,ioos:station:DISL:PPTA:1,2014-08-04T02:30:00Z,30.2791,-87.5561,27.31,1111122 
DISL,ioos:station:DISL:PPTA:1,2014-08-04T03:00:00Z,30.2791,-87.5561,27.05,1111122 
DISL,ioos:station:DISL:PPTA:1,2014-08-04T03:30:00Z,30.2791,-87.5561,26.96,1111122 
DISL,ioos:station:DISL:PPTA:1,2014-08-04T04:00:00Z,30.2791,-87.5561,27.23,1111122 
DISL,ioos:station:DISL:PPTA:1,2014-08-04T04:30:00Z,30.2791,-87.5561,26.79,1111122 
DISL,ioos:station:DISL:PPTA:1,2014-08-04T05:00:00Z,30.2791,-87.5561,26.52,1111122 
DISL,ioos:station:DISL:PPTA:1,2014-08-04T05:30:00Z,30.2791,-87.5561,26.45,1111122 
DISL,ioos:station:DISL:PPTA:1,2014-08-04T06:00:00Z,30.2791,-87.5561,26.42,1111122 
DISL,ioos:station:DISL:PPTA:1,2014-08-04T06:30:00Z,30.2791,-87.5561,26.42,1111122 
DISL,ioos:station:DISL:PPTA:1,2014-08-04T07:00:00Z,30.2791,-87.5561,25.8,1111122 
DISL,ioos:station:DISL:PPTA:1,2014-08-04T07:30:00Z,30.2791,-87.5561,25.8,1111122 
DISL,ioos:station:DISL:PPTA:1,2014-08-04T08:00:00Z,30.2791,-87.5561,25.8,1111122 
DISL,ioos:station:DISL:PPTA:1,2014-08-04T08:30:00Z,30.2791,-87.5561,25.8,1111122 
DISL,ioos:station:DISL:PPTA:1,2014-08-04T09:00:00Z,30.2791,-87.5561,25.33,1111122 
DISL,ioos:station:DISL:PPTA:1,2014-08-04T09:30:00Z,30.2791,-87.5561,25.43,1111122 
DISL,ioos:station:DISL:PPTA:1,2014-08-04T10:00:00Z,30.2791,-87.5561,25.39,1111122 
DISL,ioos:station:DISL:PPTA:1,2014-08-04T10:30:00Z,30.2791,-87.5561,25.05,1111122 
DISL,ioos:station:DISL:PPTA:1,2014-08-04T11:00:00Z,30.2791,-87.5561,25.06,1111122 
DISL,ioos:station:DISL:PPTA:1,2014-08-04T11:30:00Z,30.2791,-87.5561,25.41,1111122 
DISL,ioos:station:DISL:PPTA:1,2014-08-04T12:00:00Z,30.2791,-87.5561,25.6,1111122 
DISL,ioos:station:DISL:PPTA:1,2014-08-04T12:30:00Z,30.2791,-87.5561,25.77,1111122 
DISL,ioos:station:DISL:PPTA:1,2014-08-04T13:00:00Z,30.2791,-87.5561,26.25,1111122 
DISL,ioos:station:DISL:PPTA:1,2014-08-04T13:30:00Z,30.2791,-87.5561,26.59,1111122 
DISL,ioos:station:DISL:PPTA:1,2014-08-04T14:00:00Z,30.2791,-87.5561,26.89,1111122 
DISL,ioos:station:DISL:PPTA:1,2014-08-04T14:30:00Z,30.2791,-87.5561,27.29,1111122 
DISL,ioos:station:DISL:PPTA:1,2014-08-04T15:00:00Z,30.2791,-87.5561,26.84,1111122 
DISL,ioos:station:DISL:PPTA:1,2014-08-04T15:30:00Z,30.2791,-87.5561,27.38,1111122 
DISL,ioos:station:DISL:PPTA:1,2014-08-04T16:00:00Z,30.2791,-87.5561,28.34,1111122 
DISL,ioos:station:DISL:PPTA:1,2014-08-04T16:30:00Z,30.2791,-87.5561,28.74,1111122 
DISL,ioos:station:DISL:PPTA:1,2014-08-04T17:00:00Z,30.2791,-87.5561,29.75,1111122 
DISL,ioos:station:DISL:PPTA:1,2014-08-04T17:30:00Z,30.2791,-87.5561,28.8,1111122 
DISL,ioos:station:DISL:PPTA:1,2014-08-04T18:00:00Z,30.2791,-87.5561,29.38,1111122 
DISL,ioos:station:DISL:PPTA:1,2014-08-04T18:30:00Z,30.2791,-87.5561,30.2,1111122 
DISL,ioos:station:DISL:PPTA:1,2014-08-04T19:00:00Z,30.2791,-87.5561,29.96,1111122 
DISL,ioos:station:DISL:PPTA:1,2014-08-04T19:30:00Z,30.2791,-87.5561,29.72,1111122 
DISL,ioos:station:DISL:PPTA:1,2014-08-04T20:00:00Z,30.2791,-87.5561,29.89,1111122 
DISL,ioos:station:DISL:PPTA:1,2014-08-04T20:30:00Z,30.2791,-87.5561,30.37,1111122 
DISL,ioos:station:DISL:PPTA:1,2014-08-04T21:00:00Z,30.2791,-87.5561,29.89,1111122 
DISL,ioos:station:DISL:PPTA:1,2014-08-04T21:30:00Z,30.2791,-87.5561,30.4,1111122 
DISL,ioos:station:DISL:PPTA:1,2014-08-04T22:00:00Z,30.2791,-87.5561,30.37,1111122 
DISL,ioos:station:DISL:PPTA:1,2014-08-04T22:30:00Z,30.2791,-87.5561,29.93,1111122 
DISL,ioos:station:DISL:PPTA:1,2014-08-04T23:00:00Z,30.2791,-87.5561,29.55,1111122 
DISL,ioos:station:DISL:PPTA:1,2014-08-04T23:30:00Z,30.2791,-87.5561,29.4,1111122 
DISL,ioos:station:DISL:PPTA:1,2014-08-05T00:00:00Z,30.2791,-87.5561,28.65,1111122 
DISL,ioos:station:DISL:PPTA:1,2014-08-05T00:30:00Z,30.2791,-87.5561,28.72,1111122 
DISL,ioos:station:DISL:PPTA:1,2014-08-05T01:00:00Z,30.2791,-87.5561,28.18,1111122 
DISL,ioos:station:DISL:PPTA:1,2014-08-05T01:30:00Z,30.2791,-87.5561,26.67,1111122 
DISL,ioos:station:DISL:PPTA:1,2014-08-05T02:00:00Z,30.2791,-87.5561,26.46,1111122 
DISL,ioos:station:DISL:PPTA:1,2014-08-05T02:30:00Z,30.2791,-87.5561,26.95,1111122 
DISL,ioos:station:DISL:PPTA:1,2014-08-05T03:00:00Z,30.2791,-87.5561,27.26,1111122 
DISL,ioos:station:DISL:PPTA:1,2014-08-05T03:30:00Z,30.2791,-87.5561,27.58,1111122 
DISL,ioos:station:DISL:PPTA:1,2014-08-05T04:00:00Z,30.2791,-87.5561,27.44,1111122 
DISL,ioos:station:DISL:PPTA:1,2014-08-05T04:30:00Z,30.2791,-87.5561,27.58,1111122 
DISL,ioos:station:DISL:PPTA:1,2014-08-05T05:00:00Z,30.2791,-87.5561,26.79,1111122 
DISL,ioos:station:DISL:PPTA:1,2014-08-05T05:30:00Z,30.2791,-87.5561,26.48,1111122 
DISL,ioos:station:DISL:PPTA:1,2014-08-05T06:00:00Z,30.2791,-87.5561,26.25,1111122 
DISL,ioos:station:DISL:PPTA:1,2014-08-05T06:30:00Z,30.2791,-87.5561,26.14,1111122 
DISL,ioos:station:DISL:PPTA:1,2014-08-05T07:00:00Z,30.2791,-87.5561,26.48,1111122 
DISL,ioos:station:DISL:PPTA:1,2014-08-05T07:30:00Z,30.2791,-87.5561,26.04,1111122 
DISL,ioos:station:DISL:PPTA:1,2014-08-05T08:00:00Z,30.2791,-87.5561,26.21,1111122 
DISL,ioos:station:DISL:PPTA:1,2014-08-05T08:30:00Z,30.2791,-87.5561,26.15,1111122 
DISL,ioos:station:DISL:PPTA:1,2014-08-05T09:00:00Z,30.2791,-87.5561,25.74,1111122 
DISL,ioos:station:DISL:PPTA:1,2014-08-05T09:30:00Z,30.2791,-87.5561,25.53,1111122 
DISL,ioos:station:DISL:PPTA:1,2014-08-05T10:00:00Z,30.2791,-87.5561,25.26,1111122 
DISL,ioos:station:DISL:PPTA:1,2014-08-05T10:30:00Z,30.2791,-87.5561,25.34,1111122 
DISL,ioos:station:DISL:PPTA:1,2014-08-05T11:00:00Z,30.2791,-87.5561,25.14,1111122 
DISL,ioos:station:DISL:PPTA:1,2014-08-05T11:30:00Z,30.2791,-87.5561,25.21,1111122 
DISL,ioos:station:DISL:PPTA:1,2014-08-05T12:00:00Z,30.2791,-87.5561,25.3,1111122 
DISL,ioos:station:DISL:PPTA:1,2014-08-05T12:30:00Z,30.2791,-87.5561,25.36,1111122 
DISL,ioos:station:DISL:PPTA:1,2014-08-05T13:00:00Z,30.2791,-87.5561,26.13,1111122 
DISL,ioos:station:DISL:PPTA:1,2014-08-05T13:30:00Z,30.2791,-87.5561,26.77,1111122 
DISL,ioos:station:DISL:PPTA:1,2014-08-05T14:00:00Z,30.2791,-87.5561,28.01,1111122 
DISL,ioos:station:DISL:PPTA:1,2014-08-05T14:30:00Z,30.2791,-87.5561,29.21,1111122 
DISL,ioos:station:DISL:PPTA:1,2014-08-05T15:00:00Z,30.2791,-87.5561,29.92,1111122 
DISL,ioos:station:DISL:PPTA:1,2014-08-05T15:30:00Z,30.2791,-87.5561,30.45,1111122 
DISL,ioos:station:DISL:PPTA:1,2014-08-05T16:00:00Z,30.2791,-87.5561,29.75,1111122 
DISL,ioos:station:DISL:PPTA:1,2014-08-05T16:30:00Z,30.2791,-87.5561,30.09,1111122 
DISL,ioos:station:DISL:PPTA:1,2014-08-05T17:00:00Z,30.2791,-87.5561,30.84,1111122 
DISL,ioos:station:DISL:PPTA:1,2014-08-05T17:30:00Z,30.2791,-87.5561,30.12,1111122 
DISL,ioos:station:DISL:PPTA:1,2014-08-05T18:00:00Z,30.2791,-87.5561,30.15,1111122 
DISL,ioos:station:DISL:PPTA:1,2014-08-05T18:30:00Z,30.2791,-87.5561,30.7,1111122 
DISL,ioos:station:DISL:PPTA:1,2014-08-05T19:00:00Z,30.2791,-87.5561,30.71,1111122 
DISL,ioos:station:DISL:PPTA:1,2014-08-05T19:30:00Z,30.2791,-87.5561,30.84,1111122 
DISL,ioos:station:DISL:PPTA:1,2014-08-05T20:00:00Z,30.2791,-87.5561,30.55,1111122 
DISL,ioos:station:DISL:PPTA:1,2014-08-05T20:30:00Z,30.2791,-87.5561,31.16,1111122 
DISL,ioos:station:DISL:PPTA:1,2014-08-05T21:00:00Z,30.2791,-87.5561,30.66,1111122 
DISL,ioos:station:DISL:PPTA:1,2014-08-05T21:30:00Z,30.2791,-87.5561,30.78,1111122 
DISL,ioos:station:DISL:PPTA:1,2014-08-05T22:00:00Z,30.2791,-87.5561,30.67,1111122 
DISL,ioos:station:DISL:PPTA:1,2014-08-05T22:30:00Z,30.2791,-87.5561,30.64,1111122 
DISL,ioos:station:DISL:PPTA:1,2014-08-05T23:00:00Z,30.2791,-87.5561,30.91,1111122 
DISL,ioos:station:DISL:PPTA:1,2014-08-05T23:30:00Z,30.2791,-87.5561,30.67,1111122 
DISL,ioos:station:DISL:PPTA:1,2014-08-06T00:00:00Z,30.2791,-87.5561,30.41,1111122 
DISL,ioos:station:DISL:PPTA:1,2014-08-06T00:30:00Z,30.2791,-87.5561,29.3,1111122 
DISL,ioos:station:DISL:PPTA:1,2014-08-06T01:00:00Z,30.2791,-87.5561,29.13,1111122 
DISL,ioos:station:DISL:PPTA:1,2014-08-06T01:30:00Z,30.2791,-87.5561,28.89,1111122 
DISL,ioos:station:DISL:PPTA:1,2014-08-06T02:00:00Z,30.2791,-87.5561,28.98,1111122 
DISL,ioos:station:DISL:PPTA:1,2014-08-06T02:30:00Z,30.2791,-87.5561,28.81,1111122 
DISL,ioos:station:DISL:PPTA:1,2014-08-06T03:00:00Z,30.2791,-87.5561,28.75,1111122 
DISL,ioos:station:DISL:PPTA:1,2014-08-06T03:30:00Z,30.2791,-87.5561,28.71,1111122 
DISL,ioos:station:DISL:PPTA:1,2014-08-06T04:00:00Z,30.2791,-87.5561,28.68,1111122 
DISL,ioos:station:DISL:PPTA:1,2014-08-06T04:30:00Z,30.2791,-87.5561,28.4,1111122 
DISL,ioos:station:DISL:PPTA:1,2014-08-06T05:00:00Z,30.2791,-87.5561,28.47,1111122 
DISL,ioos:station:DISL:PPTA:1,2014-08-06T05:30:00Z,30.2791,-87.5561,27.79,1111122 
DISL,ioos:station:DISL:PPTA:1,2014-08-06T06:00:00Z,30.2791,-87.5561,27.32,1111122 
DISL,ioos:station:DISL:PPTA:1,2014-08-06T06:30:00Z,30.2791,-87.5561,27.36,1111122 
DISL,ioos:station:DISL:PPTA:1,2014-08-06T07:00:00Z,30.2791,-87.5561,27.47,1111122 
DISL,ioos:station:DISL:PPTA:1,2014-08-06T07:30:00Z,30.2791,-87.5561,27.27,1111122 
DISL,ioos:station:DISL:PPTA:1,2014-08-06T08:00:00Z,30.2791,-87.5561,26.76,1111122 
DISL,ioos:station:DISL:PPTA:1,2014-08-06T08:30:00Z,30.2791,-87.5561,26.69,1111122 
DISL,ioos:station:DISL:PPTA:1,2014-08-06T09:00:00Z,30.2791,-87.5561,26.79,1111122 
DISL,ioos:station:DISL:PPTA:1,2014-08-06T09:30:00Z,30.2791,-87.5561,26.62,1111122 
DISL,ioos:station:DISL:PPTA:1,2014-08-06T10:00:00Z,30.2791,-87.5561,26.69,1111122 
DISL,ioos:station:DISL:PPTA:1,2014-08-06T10:30:00Z,30.2791,-87.5561,26.38,1111122 
DISL,ioos:station:DISL:PPTA:1,2014-08-06T11:00:00Z,30.2791,-87.5561,26.42,1111122 
DISL,ioos:station:DISL:PPTA:1,2014-08-06T11:30:00Z,30.2791,-87.5561,26.42,1111122 
DISL,ioos:station:DISL:PPTA:1,2014-08-06T12:00:00Z,30.2791,-87.5561,26.59,1111122 
DISL,ioos:station:DISL:PPTA:1,2014-08-06T12:30:00Z,30.2791,-87.5561,26.75,1111122 
DISL,ioos:station:DISL:PPTA:1,2014-08-06T13:00:00Z,30.2791,-87.5561,27.62,1111122 
DISL,ioos:station:DISL:PPTA:1,2014-08-06T13:30:00Z,30.2791,-87.5561,28.21,1111122 
DISL,ioos:station:DISL:PPTA:1,2014-08-06T14:00:00Z,30.2791,-87.5561,28.73,1111122 
DISL,ioos:station:DISL:PPTA:1,2014-08-06T14:30:00Z,30.2791,-87.5561,28.89,1111122 
DISL,ioos:station:DISL:PPTA:1,2014-08-06T15:00:00Z,30.2791,-87.5561,29.66,1111122 
DISL,ioos:station:DISL:PPTA:1,2014-08-06T15:30:00Z,30.2791,-87.5561,29.38,1111122 
DISL,ioos:station:DISL:PPTA:1,2014-08-06T16:00:00Z,30.2791,-87.5561,27.31,1111122 
DISL,ioos:station:DISL:PPTA:1,2014-08-06T16:30:00Z,30.2791,-87.5561,28.87,1111122 
DISL,ioos:station:DISL:PPTA:1,2014-08-06T17:00:00Z,30.2791,-87.5561,29.99,1111122 
DISL,ioos:station:DISL:PPTA:1,2014-08-06T17:30:00Z,30.2791,-87.5561,30.3,1111122 
DISL,ioos:station:DISL:PPTA:1,2014-08-06T18:00:00Z,30.2791,-87.5561,30.17,1111122 
DISL,ioos:station:DISL:PPTA:1,2014-08-06T18:30:00Z,30.2791,-87.5561,31.3,1111122 
DISL,ioos:station:DISL:PPTA:1,2014-08-06T19:00:00Z,30.2791,-87.5561,31.3,1111122 
DISL,ioos:station:DISL:PPTA:1,2014-08-06T19:30:00Z,30.2791,-87.5561,31.4,1111122 
DISL,ioos:station:DISL:PPTA:1,2014-08-06T20:00:00Z,30.2791,-87.5561,31.13,1111122 
DISL,ioos:station:DISL:PPTA:1,2014-08-06T20:30:00Z,30.2791,-87.5561,31.54,1111122 
DISL,ioos:station:DISL:PPTA:1,2014-08-06T21:00:00Z,30.2791,-87.5561,31.34,1111122 
DISL,ioos:station:DISL:PPTA:1,2014-08-06T21:30:00Z,30.2791,-87.5561,31.45,1111122 
DISL,ioos:station:DISL:PPTA:1,2014-08-06T22:00:00Z,30.2791,-87.5561,31.08,1111122 
DISL,ioos:station:DISL:PPTA:1,2014-08-06T22:30:00Z,30.2791,-87.5561,30.54,1111122 
DISL,ioos:station:DISL:PPTA:1,2014-08-06T23:00:00Z,30.2791,-87.5561,30.37,1111122 
DISL,ioos:station:DISL:PPTA:1,2014-08-06T23:30:00Z,30.2791,-87.5561,30.16,1111122 